SWA318 KMCO-MMUN

Flight info

Callsign SWA318
Flight time 1h 49m
Altitude 35000
Route FSHUN3 PLUMR DCT SHEEK Q118 FEMID DCT KARTR DCT LULLS Y196 CANOA UB879 NOSAT NOSAT1B
Aircraft B38M/M-SDE1FGHILORVWXY/HB1

Departure

Time 2026-04-25 19:12
Airport Orlando International Airport (KMCO)

Arrival

Time 2026-04-25 21:02
Airport Cancún International Airport (MMUN)
Time Latitude Longitude Altitude Speed Heading
2026-04-25 18:41 28.42520 -81.30059 97 ft 0 kts 28°
2026-04-25 18:59 28.42514 -81.30063 113 ft 2 kts 31°
2026-04-25 18:59 28.42489 -81.30088 97 ft 2 kts 52°
2026-04-25 19:00 28.42475 -81.30121 95 ft 2 kts 79°
2026-04-25 19:00 28.42474 -81.30140 95 ft 2 kts 91°
2026-04-25 19:01 28.42480 -81.30177 96 ft 2 kts 108°
2026-04-25 19:01 28.42485 -81.30194 95 ft 2 kts 114°
2026-04-25 19:01 28.42490 -81.30206 97 ft 1 kts 118°
2026-04-25 19:01 28.42491 -81.30208 97 ft 0 kts 118°
2026-04-25 19:03 28.42487 -81.30199 97 ft 3 kts 118°
2026-04-25 19:03 28.42471 -81.30165 97 ft 7 kts 118°
2026-04-25 19:04 28.42359 -81.30216 98 ft 20 kts 271°
2026-04-25 19:04 28.42354 -81.30394 97 ft 24 kts 267°
2026-04-25 19:05 28.42328 -81.30794 97 ft 27 kts 265°
2026-04-25 19:05 28.42347 -81.31242 97 ft 30 kts 274°
2026-04-25 19:05 28.42350 -81.31477 99 ft 30 kts 269°
2026-04-25 19:06 28.42348 -81.31720 101 ft 30 kts 270°
2026-04-25 19:06 28.42424 -81.31989 106 ft 15 kts 359°
2026-04-25 19:06 28.42542 -81.31991 106 ft 19 kts 359°
2026-04-25 19:07 28.42878 -81.31993 102 ft 30 kts 359°
2026-04-25 19:07 28.43105 -81.31996 102 ft 35 kts 360°
2026-04-25 19:08 28.43544 -81.32000 101 ft 27 kts 359°
2026-04-25 19:08 28.43738 -81.32003 102 ft 29 kts 359°
2026-04-25 19:09 28.44362 -81.32009 101 ft 32 kts 359°
2026-04-25 19:09 28.44463 -81.32010 100 ft 22 kts 359°
2026-04-25 19:09 28.44805 -81.32021 102 ft 11 kts 329°
2026-04-25 19:10 28.44824 -81.32090 101 ft 11 kts 272°
2026-04-25 19:10 28.44824 -81.32120 102 ft 0 kts 269°
2026-04-25 19:11 28.44824 -81.32124 102 ft 2 kts 269°
2026-04-25 19:11 28.44823 -81.32162 102 ft 7 kts 269°
2026-04-25 19:11 28.44807 -81.32226 99 ft 10 kts 213°
2026-04-25 19:12 28.44718 -81.32231 102 ft 25 kts 179°
2026-04-25 19:12 28.44215 -81.32226 104 ft 116 kts 179°
2026-04-25 19:12 28.43147 -81.32214 161 ft 183 kts 179°
2026-04-25 19:12 28.41843 -81.32178 1155 ft 185 kts 178°
2026-04-25 19:13 28.40558 -81.32204 2223 ft 193 kts 183°
2026-04-25 19:13 28.39137 -81.32273 2859 ft 215 kts 183°
2026-04-25 19:13 28.37559 -81.32353 3474 ft 240 kts 183°
2026-04-25 19:13 28.35887 -81.32437 4604 ft 239 kts 183°
2026-04-25 19:14 28.34204 -81.32533 5642 ft 246 kts 186°
2026-04-25 19:14 28.33113 -81.32863 6308 ft 247 kts 206°
2026-04-25 19:14 28.31144 -81.34247 7581 ft 255 kts 214°
2026-04-25 19:14 28.29642 -81.35346 8588 ft 260 kts 214°
2026-04-25 19:15 28.28077 -81.36502 9331 ft 277 kts 214°
2026-04-25 19:15 28.26415 -81.37737 9835 ft 289 kts 215°
2026-04-25 19:15 28.24755 -81.38974 9956 ft 291 kts 215°
2026-04-25 19:15 28.23035 -81.40260 10465 ft 303 kts 215°
2026-04-25 19:16 28.21219 -81.41617 11062 ft 321 kts 216°
2026-04-25 19:16 28.19316 -81.43040 11772 ft 334 kts 216°
2026-04-25 19:16 28.17365 -81.44497 12703 ft 337 kts 216°
2026-04-25 19:16 28.15394 -81.45970 13650 ft 343 kts 216°
2026-04-25 19:17 28.13389 -81.47466 14462 ft 347 kts 217°
2026-04-25 19:17 28.11360 -81.48979 15237 ft 351 kts 217°
2026-04-25 19:17 28.09305 -81.50512 15988 ft 356 kts 217°
2026-04-25 19:17 28.07221 -81.52066 16725 ft 360 kts 217°
2026-04-25 19:18 28.05113 -81.53636 17449 ft 365 kts 217°
2026-04-25 19:18 28.02985 -81.55222 18168 ft 369 kts 217°
2026-04-25 19:18 28.00780 -81.56754 18769 ft 377 kts 208°
2026-04-25 19:18 27.98290 -81.57751 19418 ft 382 kts 202°
2026-04-25 19:19 27.95757 -81.58720 20008 ft 386 kts 202°
2026-04-25 19:19 27.93197 -81.59686 20631 ft 390 kts 201°
2026-04-25 19:19 27.90611 -81.60655 21239 ft 393 kts 201°
2026-04-25 19:19 27.88881 -81.61301 21625 ft 396 kts 201°
2026-04-25 19:20 27.85362 -81.62613 22421 ft 401 kts 201°
2026-04-25 19:20 27.82702 -81.63604 22995 ft 404 kts 201°
2026-04-25 19:20 27.80017 -81.64604 23555 ft 408 kts 201°
2026-04-25 19:20 27.77309 -81.65611 24009 ft 412 kts 201°
2026-04-25 19:21 27.74567 -81.66631 24452 ft 416 kts 201°
2026-04-25 19:21 27.69043 -81.68733 25332 ft 421 kts 206°
2026-04-25 19:21 27.66566 -81.70456 25751 ft 419 kts 222°
2026-04-25 19:22 27.64271 -81.72507 26130 ft 424 kts 221°
2026-04-25 19:22 27.61912 -81.74525 26531 ft 429 kts 215°
2026-04-25 19:22 27.56160 -81.76452 27389 ft 444 kts 181°
2026-04-25 19:23 27.53071 -81.76070 27783 ft 450 kts 170°
2026-04-25 19:23 27.46873 -81.74752 28560 ft 457 kts 170°
2026-04-25 19:23 27.43743 -81.74061 28965 ft 460 kts 169°
2026-04-25 19:24 27.40586 -81.73357 29360 ft 463 kts 169°
2026-04-25 19:24 27.37456 -81.72656 29725 ft 467 kts 169°
2026-04-25 19:24 27.31006 -81.71213 30425 ft 472 kts 169°
2026-04-25 19:25 27.24538 -81.69766 31118 ft 476 kts 169°
2026-04-25 19:25 27.21281 -81.69038 31452 ft 478 kts 169°
2026-04-25 19:25 27.18008 -81.68308 31785 ft 481 kts 170°
2026-04-25 19:26 27.14765 -81.67584 32099 ft 483 kts 170°
2026-04-25 19:26 27.11468 -81.66849 32430 ft 485 kts 170°
2026-04-25 19:26 27.08150 -81.66109 32750 ft 487 kts 170°
2026-04-25 19:26 27.04818 -81.65380 33070 ft 489 kts 171°
2026-04-25 19:27 27.01475 -81.64678 33487 ft 488 kts 171°
2026-04-25 19:27 27.00351 -81.64440 33642 ft 488 kts 171°
2026-04-25 19:27 26.94796 -81.63267 33950 ft 488 kts 171°
2026-04-25 19:27 26.91463 -81.62562 33930 ft 486 kts 171°
2026-04-25 19:28 26.84799 -81.61154 33921 ft 492 kts 171°
2026-04-25 19:28 26.78008 -81.59721 33934 ft 499 kts 171°
2026-04-25 19:29 26.71189 -81.58285 33931 ft 499 kts 171°
2026-04-25 19:29 26.64371 -81.56850 33931 ft 499 kts 171°
2026-04-25 19:30 26.57548 -81.55416 33932 ft 499 kts 171°
2026-04-25 19:30 26.50721 -81.53982 33935 ft 499 kts 171°
2026-04-25 19:31 26.43888 -81.52550 33930 ft 499 kts 172°
2026-04-25 19:31 26.37056 -81.51119 33927 ft 500 kts 172°
2026-04-25 19:32 26.30224 -81.49690 33928 ft 499 kts 172°
2026-04-25 19:32 26.25704 -81.48745 33930 ft 499 kts 172°
2026-04-25 19:33 26.16569 -81.46838 33938 ft 499 kts 172°
2026-04-25 19:33 26.09723 -81.45793 33931 ft 492 kts 186°
2026-04-25 19:34 26.02907 -81.46396 33946 ft 492 kts 188°
2026-04-25 19:34 25.96087 -81.47006 33943 ft 491 kts 188°
2026-04-25 19:35 25.89279 -81.47634 33945 ft 491 kts 188°
2026-04-25 19:35 25.82478 -81.48261 33944 ft 490 kts 188°
2026-04-25 19:36 25.75683 -81.48887 33942 ft 490 kts 188°
2026-04-25 19:36 25.68941 -81.49508 33943 ft 489 kts 188°
2026-04-25 19:37 25.62163 -81.50131 33941 ft 489 kts 188°
2026-04-25 19:37 25.55387 -81.50754 33940 ft 488 kts 188°
2026-04-25 19:38 25.48704 -81.51780 33927 ft 479 kts 204°
2026-04-25 19:38 25.42514 -81.54469 33942 ft 478 kts 205°
2026-04-25 19:39 25.36332 -81.57189 33941 ft 478 kts 206°
2026-04-25 19:39 25.30166 -81.59924 33941 ft 477 kts 206°
2026-04-25 19:40 25.24014 -81.62653 33941 ft 477 kts 206°
2026-04-25 19:40 25.17858 -81.65379 33941 ft 476 kts 206°
2026-04-25 19:41 25.11741 -81.68086 33940 ft 476 kts 206°
2026-04-25 19:41 25.07632 -81.69902 33938 ft 475 kts 206°
2026-04-25 19:42 25.00499 -81.73052 33937 ft 475 kts 206°
2026-04-25 19:42 24.94360 -81.75761 33937 ft 475 kts 206°
2026-04-25 19:43 24.88231 -81.78461 33939 ft 474 kts 206°
2026-04-25 19:43 24.82109 -81.81156 33938 ft 474 kts 207°
2026-04-25 19:44 24.75993 -81.83846 33940 ft 473 kts 207°
2026-04-25 19:44 24.69881 -81.86530 33940 ft 472 kts 207°
2026-04-25 19:45 24.63780 -81.89207 33938 ft 472 kts 207°
2026-04-25 19:45 24.57691 -81.91877 33940 ft 471 kts 208°
2026-04-25 19:46 24.51651 -81.94610 33929 ft 464 kts 215°
2026-04-25 19:46 24.49075 -81.96621 33938 ft 448 kts 230°
2026-04-25 19:46 24.47155 -81.99232 33937 ft 435 kts 244°
2026-04-25 19:47 24.44291 -82.05049 33932 ft 432 kts 248°
2026-04-25 19:47 24.41621 -82.10952 33934 ft 431 kts 249°
2026-04-25 19:48 24.39013 -82.16866 33932 ft 430 kts 249°
2026-04-25 19:48 24.36419 -82.22774 33931 ft 429 kts 249°
2026-04-25 19:49 24.34268 -82.27672 33927 ft 429 kts 249°
2026-04-25 19:49 24.31240 -82.34557 33924 ft 428 kts 249°
2026-04-25 19:50 24.27363 -82.43358 33926 ft 427 kts 249°
2026-04-25 19:51 24.24777 -82.49219 33924 ft 427 kts 249°
2026-04-25 19:51 24.22211 -82.55027 33925 ft 426 kts 249°
2026-04-25 19:52 24.19627 -82.60868 33925 ft 426 kts 249°
2026-04-25 19:52 24.17045 -82.66698 33921 ft 425 kts 249°
2026-04-25 19:53 24.14463 -82.72522 33922 ft 425 kts 249°
2026-04-25 19:53 24.11880 -82.78337 33921 ft 424 kts 249°
2026-04-25 19:54 24.09297 -82.84147 33924 ft 424 kts 249°
2026-04-25 19:54 24.06715 -82.89950 33921 ft 424 kts 249°
2026-04-25 19:55 24.04130 -82.95750 33922 ft 424 kts 249°
2026-04-25 19:55 24.01545 -83.01544 33922 ft 424 kts 249°
2026-04-25 19:56 23.98557 -83.07115 33929 ft 431 kts 239°
2026-04-25 19:56 23.94985 -83.12380 33919 ft 431 kts 239°
2026-04-25 19:57 23.91414 -83.17639 33914 ft 430 kts 239°
2026-04-25 19:57 23.87842 -83.22888 33918 ft 430 kts 240°
2026-04-25 19:58 23.84272 -83.28128 33916 ft 430 kts 240°
2026-04-25 19:58 23.80705 -83.33358 33912 ft 429 kts 240°
2026-04-25 19:59 23.77165 -83.38544 33914 ft 429 kts 240°
2026-04-25 19:59 23.73601 -83.43759 33913 ft 428 kts 240°
2026-04-25 20:00 23.70039 -83.48966 33911 ft 428 kts 240°
2026-04-25 20:00 23.66476 -83.54169 33911 ft 428 kts 240°
2026-04-25 20:01 23.61133 -83.61959 33911 ft 427 kts 240°
2026-04-25 20:01 23.57575 -83.67139 33906 ft 427 kts 240°
2026-04-25 20:02 23.54012 -83.72321 33910 ft 427 kts 240°
2026-04-25 20:02 23.50448 -83.77497 33912 ft 427 kts 240°
2026-04-25 20:03 23.46885 -83.82668 33908 ft 427 kts 240°
2026-04-25 20:03 23.43319 -83.87838 33907 ft 427 kts 240°
2026-04-25 20:04 23.39750 -83.93007 33908 ft 427 kts 240°
2026-04-25 20:04 23.36178 -83.98176 33904 ft 427 kts 240°
2026-04-25 20:05 23.32599 -84.03348 33904 ft 428 kts 240°
2026-04-25 20:05 23.29018 -84.08520 33907 ft 428 kts 240°
2026-04-25 20:06 23.25432 -84.13691 33906 ft 429 kts 240°
2026-04-25 20:06 23.21840 -84.18867 33907 ft 429 kts 240°
2026-04-25 20:07 23.18244 -84.24045 33907 ft 429 kts 240°
2026-04-25 20:07 23.14643 -84.29223 33904 ft 430 kts 240°
2026-04-25 20:08 23.11037 -84.34403 33907 ft 430 kts 240°
2026-04-25 20:08 23.07432 -84.39578 33904 ft 430 kts 240°
2026-04-25 20:09 23.03819 -84.44758 33906 ft 430 kts 240°
2026-04-25 20:09 23.00227 -84.49904 33908 ft 431 kts 240°
2026-04-25 20:10 22.96604 -84.55086 33906 ft 431 kts 240°
2026-04-25 20:10 22.92972 -84.60278 33902 ft 431 kts 240°
2026-04-25 20:11 22.89348 -84.65453 33902 ft 432 kts 240°
2026-04-25 20:11 22.85714 -84.70638 33905 ft 432 kts 240°
2026-04-25 20:12 22.82076 -84.75824 33908 ft 432 kts 240°
2026-04-25 20:12 22.79640 -84.79292 33903 ft 432 kts 240°
2026-04-25 20:13 22.74785 -84.86199 33901 ft 433 kts 240°
2026-04-25 20:13 22.71135 -84.91387 33905 ft 433 kts 240°
2026-04-25 20:14 22.67479 -84.96576 33907 ft 433 kts 239°
2026-04-25 20:14 22.63823 -85.01762 33897 ft 433 kts 239°
2026-04-25 20:15 22.60174 -85.06958 33902 ft 433 kts 240°
2026-04-25 20:15 22.56549 -85.12173 33910 ft 434 kts 240°
2026-04-25 20:16 22.52942 -85.17350 33905 ft 434 kts 240°
2026-04-25 20:16 22.49308 -85.22562 33901 ft 434 kts 240°
2026-04-25 20:17 22.45670 -85.27777 33901 ft 434 kts 240°
2026-04-25 20:17 22.42033 -85.32981 33898 ft 434 kts 240°
2026-04-25 20:18 22.38389 -85.38193 33899 ft 435 kts 239°
2026-04-25 20:18 22.34742 -85.43404 33902 ft 435 kts 239°
2026-04-25 20:19 22.31125 -85.48565 33310 ft 426 kts 239°
2026-04-25 20:19 22.29335 -85.51119 32689 ft 427 kts 239°
2026-04-25 20:19 22.27538 -85.53681 32044 ft 429 kts 239°
2026-04-25 20:20 22.25731 -85.56255 31439 ft 431 kts 239°
2026-04-25 20:20 22.23920 -85.58841 30770 ft 433 kts 239°
2026-04-25 20:20 22.22103 -85.61440 30074 ft 435 kts 239°
2026-04-25 20:20 22.20273 -85.64055 29384 ft 438 kts 239°
2026-04-25 20:21 22.18427 -85.66690 28732 ft 443 kts 239°
2026-04-25 20:21 22.16562 -85.69353 28115 ft 444 kts 239°
2026-04-25 20:21 22.14702 -85.72007 27509 ft 445 kts 238°
2026-04-25 20:21 22.12827 -85.74682 26882 ft 449 kts 238°
2026-04-25 20:22 22.10935 -85.77378 26259 ft 453 kts 238°
2026-04-25 20:22 22.10293 -85.78294 26048 ft 454 kts 238°
2026-04-25 20:22 22.07103 -85.82838 25015 ft 459 kts 238°
2026-04-25 20:22 22.05177 -85.85578 24407 ft 458 kts 238°
2026-04-25 20:23 22.03258 -85.88308 23801 ft 457 kts 237°
2026-04-25 20:23 22.01345 -85.91028 23141 ft 455 kts 237°
2026-04-25 20:23 21.99437 -85.93740 22490 ft 452 kts 237°
2026-04-25 20:23 21.97544 -85.96431 21966 ft 449 kts 237°
2026-04-25 20:24 21.95507 -85.98983 21652 ft 454 kts 226°
2026-04-25 20:24 21.93115 -86.01177 21390 ft 444 kts 225°
2026-04-25 20:24 21.90820 -86.03334 21132 ft 430 kts 226°
2026-04-25 20:24 21.88592 -86.05435 20849 ft 425 kts 226°
2026-04-25 20:25 21.86371 -86.07527 20552 ft 424 kts 226°
2026-04-25 20:25 21.84156 -86.09612 20268 ft 423 kts 226°
2026-04-25 20:25 21.81946 -86.11692 19988 ft 421 kts 226°
2026-04-25 20:25 21.79780 -86.13729 19709 ft 413 kts 226°
2026-04-25 20:26 21.77642 -86.15740 19451 ft 403 kts 226°
2026-04-25 20:26 21.75540 -86.17716 19177 ft 403 kts 226°
2026-04-25 20:26 21.73431 -86.19697 18910 ft 402 kts 226°
2026-04-25 20:26 21.71328 -86.21672 18642 ft 401 kts 226°
2026-04-25 20:27 21.69231 -86.23640 18417 ft 400 kts 226°
2026-04-25 20:27 21.67140 -86.25603 18182 ft 398 kts 225°
2026-04-25 20:27 21.65064 -86.27550 17887 ft 393 kts 225°
2026-04-25 20:27 21.63030 -86.29460 17599 ft 384 kts 225°
2026-04-25 20:28 21.61040 -86.31327 17323 ft 376 kts 225°
2026-04-25 20:28 21.59091 -86.33154 17051 ft 368 kts 225°
2026-04-25 20:28 21.57179 -86.34948 16778 ft 366 kts 225°
2026-04-25 20:28 21.55259 -86.36747 16505 ft 366 kts 225°
2026-04-25 20:29 21.53341 -86.38544 16237 ft 366 kts 225°
2026-04-25 20:29 21.51254 -86.40126 15946 ft 368 kts 216°
2026-04-25 20:29 21.50786 -86.40448 15888 ft 368 kts 217°
2026-04-25 20:39 21.49096 -86.41631 15683 ft 368 kts 217°
2026-04-25 20:39 21.47683 -86.42633 15508 ft 366 kts 217°
2026-04-25 20:40 21.44877 -86.44642 15163 ft 358 kts 217°
2026-04-25 20:40 21.42826 -86.46122 14901 ft 352 kts 217°
2026-04-25 20:40 21.40812 -86.47577 14648 ft 346 kts 217°
2026-04-25 20:40 21.38828 -86.49013 14394 ft 343 kts 217°
2026-04-25 20:41 21.36848 -86.50445 14144 ft 344 kts 217°
2026-04-25 20:41 21.34854 -86.51877 13764 ft 346 kts 216°
2026-04-25 20:41 21.32868 -86.53295 13274 ft 348 kts 216°
2026-04-25 20:41 21.30859 -86.54731 12869 ft 346 kts 216°
2026-04-25 20:42 21.28863 -86.56157 12495 ft 344 kts 216°
2026-04-25 20:42 21.26893 -86.57564 12102 ft 336 kts 216°
2026-04-25 20:42 21.24970 -86.58938 11734 ft 328 kts 216°
2026-04-25 20:42 21.23086 -86.60283 11371 ft 321 kts 215°
2026-04-25 20:43 21.21245 -86.61598 11016 ft 315 kts 215°
2026-04-25 20:43 21.19439 -86.62886 10672 ft 310 kts 215°
2026-04-25 20:43 21.17652 -86.64161 10323 ft 306 kts 215°
2026-04-25 20:43 21.15946 -86.65377 9989 ft 301 kts 214°
2026-04-25 20:44 21.14222 -86.66607 9642 ft 294 kts 214°
2026-04-25 20:44 21.12543 -86.67804 9291 ft 285 kts 214°
2026-04-25 20:44 21.10916 -86.68964 8972 ft 276 kts 214°
2026-04-25 20:44 21.09350 -86.70099 8660 ft 268 kts 219°
2026-04-25 20:45 21.08183 -86.71582 8318 ft 258 kts 248°
2026-04-25 20:45 21.07797 -86.73418 8028 ft 252 kts 275°
2026-04-25 20:45 21.08186 -86.75210 7784 ft 246 kts 299°
2026-04-25 20:45 21.09037 -86.76793 7534 ft 246 kts 303°
2026-04-25 20:46 21.09933 -86.78344 7247 ft 244 kts 304°
2026-04-25 20:46 21.10847 -86.79877 6990 ft 245 kts 305°
2026-04-25 20:46 21.11777 -86.81410 6707 ft 245 kts 305°
2026-04-25 20:46 21.12709 -86.82930 6410 ft 245 kts 305°
2026-04-25 20:47 21.13650 -86.84452 6112 ft 244 kts 304°
2026-04-25 20:47 21.14584 -86.85956 5830 ft 241 kts 304°
2026-04-25 20:47 21.15512 -86.87447 5556 ft 240 kts 304°
2026-04-25 20:47 21.16433 -86.88923 5288 ft 238 kts 304°
2026-04-25 20:48 21.17354 -86.90399 4995 ft 238 kts 303°
2026-04-25 20:48 21.18276 -86.91873 4736 ft 238 kts 303°
2026-04-25 20:48 21.19181 -86.93324 4437 ft 230 kts 303°
2026-04-25 20:48 21.20056 -86.94726 4170 ft 222 kts 303°
2026-04-25 20:49 21.20908 -86.96073 3923 ft 216 kts 303°
2026-04-25 20:49 21.21762 -86.97409 3691 ft 218 kts 304°
2026-04-25 20:49 21.22622 -86.98747 3453 ft 218 kts 303°
2026-04-25 20:49 21.23485 -87.00083 3205 ft 218 kts 303°
2026-04-25 20:50 21.24353 -87.01422 2999 ft 219 kts 303°
2026-04-25 20:50 21.25230 -87.02759 2924 ft 219 kts 303°
2026-04-25 20:50 21.26111 -87.04094 2965 ft 220 kts 303°
2026-04-25 20:50 21.26999 -87.05433 2928 ft 220 kts 303°
2026-04-25 20:51 21.27859 -87.06758 2878 ft 219 kts 303°
2026-04-25 20:51 21.28724 -87.08102 2852 ft 219 kts 303°
2026-04-25 20:51 21.29597 -87.09462 2794 ft 218 kts 300°
2026-04-25 20:51 21.29985 -87.10937 2727 ft 201 kts 260°
2026-04-25 20:52 21.29379 -87.12137 2687 ft 175 kts 216°
2026-04-25 20:52 21.28719 -87.12617 2676 ft 167 kts 210°
2026-04-25 20:52 21.27410 -87.13488 2680 ft 167 kts 210°
2026-04-25 20:52 21.26419 -87.14142 2685 ft 168 kts 210°
2026-04-25 20:53 21.25425 -87.14798 2690 ft 167 kts 211°
2026-04-25 20:53 21.24436 -87.15461 2687 ft 168 kts 210°
2026-04-25 20:53 21.23443 -87.16112 2641 ft 167 kts 211°
2026-04-25 20:53 21.22458 -87.16771 2661 ft 168 kts 211°
2026-04-25 20:54 21.21390 -87.17214 2585 ft 165 kts 176°
2026-04-25 20:54 21.20421 -87.16672 2479 ft 162 kts 131°
2026-04-25 20:54 21.19808 -87.15641 2485 ft 167 kts 120°
2026-04-25 20:54 21.19253 -87.14538 2521 ft 168 kts 120°
2026-04-25 20:55 21.18696 -87.13432 2526 ft 169 kts 120°
2026-04-25 20:55 21.18152 -87.12338 2532 ft 162 kts 119°
2026-04-25 20:55 21.17647 -87.11287 2517 ft 158 kts 116°
2026-04-25 20:55 21.17253 -87.10198 2525 ft 157 kts 112°
2026-04-25 20:56 21.16804 -87.09133 2507 ft 156 kts 119°
2026-04-25 20:56 21.16297 -87.08143 2500 ft 148 kts 123°
2026-04-25 20:56 21.15765 -87.07211 2402 ft 145 kts 123°
2026-04-25 20:56 21.15225 -87.06305 2317 ft 144 kts 125°
2026-04-25 20:57 21.14677 -87.05409 2249 ft 144 kts 125°
2026-04-25 20:57 21.14126 -87.04516 2198 ft 144 kts 125°
2026-04-25 20:57 21.13573 -87.03625 2113 ft 143 kts 126°
2026-04-25 20:57 21.13023 -87.02743 2007 ft 142 kts 126°
2026-04-25 20:58 21.12474 -87.01871 1976 ft 141 kts 127°
2026-04-25 20:58 21.11929 -87.00999 2000 ft 141 kts 126°
2026-04-25 20:58 21.11388 -87.00125 2006 ft 141 kts 126°
2026-04-25 20:58 21.10853 -86.99261 1982 ft 141 kts 126°
2026-04-25 20:59 21.10303 -86.98378 1944 ft 141 kts 126°
2026-04-25 20:59 21.09761 -86.97503 1832 ft 141 kts 126°
2026-04-25 20:59 21.09231 -86.96649 1629 ft 139 kts 125°
2026-04-25 20:59 21.08696 -86.95793 1481 ft 137 kts 127°
2026-04-25 21:00 21.08167 -86.94948 1320 ft 136 kts 126°
2026-04-25 21:00 21.07991 -86.94660 1276 ft 136 kts 128°
2026-04-25 21:00 21.06587 -86.92410 752 ft 135 kts 126°
2026-04-25 21:01 21.06065 -86.91568 626 ft 137 kts 125°
2026-04-25 21:01 21.05544 -86.90726 473 ft 131 kts 125°
2026-04-25 21:01 21.05062 -86.89925 333 ft 130 kts 127°
2026-04-25 21:01 21.04524 -86.89095 152 ft 140 kts 125°
2026-04-25 21:02 21.03990 -86.88244 37 ft 129 kts 124°
2026-04-25 21:02 21.03600 -86.87611 38 ft 66 kts 121°
2026-04-25 21:02 21.03478 -86.87385 36 ft 14 kts 81°
2026-04-25 21:02 21.03534 -86.87367 37 ft 10 kts 334°
2026-04-25 21:03 21.03539 -86.87369 37 ft 0 kts 333°
2026-04-25 21:03 21.03539 -86.87370 37 ft 1 kts 333°
2026-04-25 21:03 21.03565 -86.87384 36 ft 7 kts 334°
2026-04-25 21:03 21.03623 -86.87415 35 ft 11 kts 334°
2026-04-25 21:04 21.03696 -86.87454 34 ft 13 kts 332°
2026-04-25 21:04 21.03772 -86.87462 32 ft 8 kts 360°
2026-04-25 21:04 21.03814 -86.87500 32 ft 5 kts 320°
2026-04-25 21:04 21.03844 -86.87488 32 ft 6 kts 34°
2026-04-25 21:05 21.03877 -86.87464 32 ft 0 kts 34°
2026-04-25 21:05 21.03880 -86.87462 32 ft 0 kts 34°